Location: Harwich
(41.7160°N, 69.9939°W)
Time: 14:54:56
(UTC+02:00)

METEOR M2 - Visible Passes

Search period start: 17 September 2024 00:00
Search period end: 27 September 2024 00:00
Orbit: 816 x 827 km, 98.4° (Epoch: 17 September)

Date Brightness Start Highest point End Pass type
(mag) Time Alt. Az. Time Alt. Az. Time Alt. Az.
17 Sep ? 10:46:55 10° NE 10:50:30 18° E 10:54:04 10° SE visible
18 Sep ? 10:28:20 10° ENE 10:29:57 11° E 10:31:35 10° ESE visible
19 Sep ? 11:45:09 10° NNE 11:50:28 62° E 11:55:45 10° S visible
20 Sep ? 11:25:04 10° NNE 11:30:06 41° E 11:35:07 10° SSE visible
21 Sep ? 11:05:10 10° NE 11:09:40 27° E 11:14:09 10° SSE visible
22 Sep ? 10:45:38 10° NE 10:49:10 18° E 10:52:43 10° SE visible
23 Sep ? 10:27:07 10° ENE 10:28:37 11° E 10:30:08 10° ESE visible
24 Sep ? 11:43:49 10° NNE 11:49:08 61° E 11:54:26 10° S visible
25 Sep ? 11:23:44 10° NNE 11:28:46 40° E 11:33:46 10° SSE visible
26 Sep ? 11:03:50 10° NE 11:08:19 26° E 11:12:47 10° SSE visible
